Regional Weather Roundup
Issued by NWS Bismarck, ND

Home | Current Version | Previous Version | Text Only | Print | Product List | Glossary On
Versions: 1 2 3 4 5 6 7 8 9 10 11 12 13 14 15 16 17 18 19 20 21 22 23 24 25 26 27 28 29 30 31 32 33 34 35 36 37 38 39 40 41 42 43 44 45 46 47 48 49 50
000
ASUS43 KBIS 192220
RWRBIS

NWR BROADCAST TEXT
NATIONAL WEATHER SERVICE BISMARCK ND
400 PM CST FRI DEC 19 2014

NOTE: "FAIR" INDICATES FEW OR NO CLOUDS BELOW 12,000 FEET WITH NO
SIGNIFICANT WEATHER AND/OR OBSTRUCTIONS TO VISIBILITY.


CITY           SKY/WX    TMP DP  RH WIND       PRES   REMARKS
WILLISTON      CLOUDY    27  25  92 S3        29.91R
MINOT          CLOUDY    27  25  92 W3        29.93R FOG
MINOT AFB      CLOUDY    26  26 100 W3        29.93R
BISMARCK       CLEAR     37  27  67 E3        29.93R
DICKINSON      CLEAR     43  28  55 W6        29.87R
GARRISON         N/A     28  26  92 CALM      29.92R
HETTINGER ARPT CLEAR     43  27  53 W8        29.91R
JAMESTOWN      MOCLDY    31  27  85 S10       29.94S
BEACH          FAIR      41  27  56 SW5       29.89R
CARRINGTON     FAIR      28  28 100 MISG      29.96R
CROSBY         CLOUDY    25  25 100 NW5       29.93R FOG     WCI  19
HARVEY         FOG       27  27 100 W5        29.95R VSB 1/4
HAZEN          FAIR      32  27  80 NE6       29.93R
LINTON         FAIR      32  30  93 S3        29.94R
MANDAN         FAIR      37  28  70 E3        29.93R
OAKES            N/A     30  30 100 S9        30.00R FOG
RUGBY          CLOUDY    27  27 100 NE3       29.94R FOG
STANLEY        FOG       25  25 100 SW3       29.90R VSB<1/4
TIOGA          FOG       25  25 100 W3        29.93R VSB 1/4
WATFORD CITY   FAIR      36  30  80 W3        29.89R
$$

CITY           SKY/WX    TMP DP  RH WIND       PRES   REMARKS
GRAND FORKS    CLOUDY    28  27  96 S8        30.01R FOG     WCI  20
GRAND FORKS AF CLOUDY    28  28 100 S8        30.01R FOG
DEVILS LAKE    CLOUDY    27  19  74 SW6       29.94R WCI  20
FARGO          CLOUDY    31  28  89 S14       30.02S FOG
CANDO          CLOUDY    27  27 100 E3        29.95S FOG
CAVALIER       FOG       27  27 100 S7        30.01R VSB 3/4 WCI  19
GWINNER        CLOUDY    32  32 100 MISG      30.01S
LANGDON        FOG       27  25  93 S7        29.95S VSB 3/4 WCI  19
ROLLA          CLOUDY    27  27 100 S3        29.95R
WALHALLA         N/A     27  27 100 SE5       30.01R FOG
$$

CITY           SKY/WX    TMP DP  RH WIND       PRES   REMARKS
ABERDEEN       CLOUDY    31  27  85 S13       30.00R FOG
MOBRIDGE       CLEAR     36  28  73 SE8       29.92R
BUFFALO          N/A     45  23  42 N3        29.84R
RAPID CITY     CLOUDY    44  26  49 SE6       29.95R
GLASGOW        CLEAR     38  28  67 E6        29.86R
SIDNEY         CLEAR     39  30  70 CALM      29.91S
WOLF POINT     CLEAR     41  28  60 CALM      29.88S
GLENDIVE       CLEAR     39  25  56 S8        29.89S
MILES CITY     CLEAR     42  26  53 SW5       29.88S
BAKER          CLEAR     43  24  47 W7        29.90R
$$

CITY           SKY/WX    TMP DP  RH WIND       PRES   REMARKS
BILLINGS       PTSUNNY   40  22  48 SW9       29.87S
GREAT FALLS    PTSUNNY   44  28  53 SW21      29.77S
REGINA         CLOUDY    18  16  93 NW2       29.92R FOG
ESTEVAN        FOG       21  19  93 SW2       29.92R VSB 1/4
$$



USA.gov is the U.S. government's official web portal to all federal, state and local government web resources and services.